Theta_e
315 314 314 314 314 314 314 314 314 314 314 314 314 314 314 314 313 313 314 314 314 314 313 313 313 313 313 313 312 311 310 309 308 309 310 311 312 313 313 313 313 313
315 315 315 315 315 315 314 314 314 314 314 314 314 314 314 314 314 314 314 314 314 314 314 313 313 313 313 313 313 311 310 309 308 308 309 309 310 311 311 311 312 313
315 315 315 315 315 315 314 314 314 314 314 314 314 314 314 314 314 314 314 314 314 314 314 313 313 313 313 312 312 311 310 309 308 308 308 309 310 311 311 312 313 313
315 315 315 315 315 315 315 315 315 315 315 315 315 314 314 314 314 314 314 314 314 314 314 313 313 313 312 312 312 311 310 309 309 308 308 309 310 311 312 313 313 313
315 316 315 315 315 315 315 315 315 315 315 314 315 314 314 314 314 314 314 314 314 314 313 313 313 313 312 312 311 310 310 309 308 308 308 308 309 310 312 312 312 313
315 315 315 315 315 315 315 315 314 314 314 314 314 314 314 314 314 314 314 314 313 313 313 313 312 312 312 312 311 310 309 309 308 308 308 308 308 309 310 310 311 311
315 315 315 315 315 315 315 315 314 314 314 314 314 314 314 314 314 313 313 313 313 313 313 312 312 312 311 311 311 311 310 309 308 307 308 308 309 310 311 311 312 312
315 315 315 315 315 315 314 314 314 314 314 314 314 314 314 313 313 314 313 313 313 313 312 312 312 311 311 311 311 310 310 309 308 307 308 309 309 310 311 311 312 312
315 315 315 315 315 315 315 314 314 314 313 313 314 314 314 314 314 314 314 313 313 313 312 312 311 311 311 311 310 310 310 309 308 307 307 308 309 310 310 311 311 312
315 315 315 315 315 315 314 314 313 313 313 314 314 314 314 314 314 314 313 313 313 312 312 311 311 311 311 311 310 310 310 309 309 308 307 307 307 308 308 309 310 309
315 315 315 315 315 315 314 314 314 314 314 314 314 314 314 314 314 314 313 313 312 312 311 311 311 311 311 311 310 310 310 310 309 309 308 307 307 307 307 307 308 308
314 314 315 314 314 314 314 314 314 314 314 314 314 314 314 314 313 313 313 313 312 312 311 311 311 311 311 311 310 310 310 309 309 309 309 308 308 307 307 306 307 307
314 314 314 314 314 314 314 314 314 314 314 314 314 313 313 313 312 312 312 312 312 312 312 311 311 311 311 310 310 310 309 309 309 309 308 308 308 308 307 307 307 306
314 314 314 313 313 313 314 314 314 313 313 312 312 312 311 311 311 311 311 311 311 310 310 310 310 310 310 310 309 309 309 309 309 308 308 308 308 308 308 307 307 307
313 313 313 313 313 314 313 313 312 312 311 310 310 310 310 310 310 310 310 310 309 309 309 309 309 309 308 308 308 308 308 308 308 308 308 308 308 308 308 308 308 308
313 313 313 313 313 313 312 311 311 310 310 310 310 310 310 310 310 310 310 309 309 309 309 309 309 308 308 308 308 307 307 307 307 307 307 307 307 307 307 308 307 307
313 313 313 313 312 311 311 311 310 311 311 311 310 310 310 310 310 310 309 309 309 309 309 309 308 308 308 308 307 307 307 307 306 307 307 306 307 307 307 307 307 307
313 312 312 311 311 311 311 311 311 311 311 311 310 310 310 309 309 309 309 309 309 308 308 308 308 308 308 308 308 307 307 307 307 307 307 306 307 307 307 307 307 306
312 311 311 311 311 311 311 311 311 311 310 310 310 309 308 308 307 307 307 307 307 306 306 306 305 305 305 305 305 305 305 305 305 305 305 305 305 305 305 306 306 306
311 310 310 311 310 311 311 310 310 310 309 308 307 306 305 304 304 304 304 303 303 303 302 302 302 301 301 301 301 301 301 301 301 301 301 301 302 302 302 303 304 304
310 310 310 310 310 310 310 310 309 308 306 305 303 302 302 301 301 301 301 301 301 301 301 301 301 301 300 300 300 300 300 300 300 300 300 300 300 300 300 301 302 302
310 310 310 310 310 309 308 307 306 304 303 302 301 301 301 301 302 302 302 302 302 301 301 301 301 301 300 300 300 300 300 300 300 300 299 300 300 300 300 300 300 301
310 309 309 309 308 306 305 303 302 302 301 301 302 302 302 302 303 303 303 302 302 302 302 302 302 301 300 300 300 300 300 299 299 299 299 299 299 299 300 300 300 300
309 308 307 305 304 303 302 301 301 302 302 302 302 302 302 303 303 303 302 302 302 302 301 301 302 301 300 300 300 299 299 299 299 299 299 299 299 299 299 299 299 300
305 304 303 302 302 301 302 302 302 302 302 302 302 302 302 302 302 302 302 302 301 301 301 301 301 300 300 299 299 299 299 299 299 299 299 299 299 299 299 299 299 299
302 302 302 301 302 302 302 302 302 302 302 302 302 302 302 301 301 301 301 301 301 301 301 300 300 300 299 299 299 299 299 299 299 299 299 299 299 300 300 299 300 300
Wind_Speed
17 18 19 19 19 19 19 18 19 19 18 18 17 17 17 17 18 19 20 21 22 23 24 24 26 27 28 28 27 28 30 32 34 35 37 38 38 38 37 36 35 35
16 17 17 18 18 19 18 18 18 18 18 18 18 18 18 18 19 21 22 23 24 25 25 25 26 27 27 28 27 27 28 30 32 33 35 35 35 35 35 34 33 34
15 16 17 18 19 18 18 18 19 19 20 19 19 19 20 20 21 23 23 24 25 26 26 26 27 27 27 27 26 27 28 29 30 30 30 31 30 31 32 33 33 35
14 15 16 18 19 19 20 20 21 22 21 21 21 21 22 22 23 24 24 25 26 26 27 28 28 28 27 26 25 26 28 29 30 29 30 31 31 32 33 33 34 34
14 16 17 19 20 20 21 22 23 23 23 23 23 23 23 23 23 24 25 26 27 28 29 29 30 29 29 27 25 25 27 29 30 30 31 32 33 34 35 35 35 35
16 17 18 19 20 21 23 24 24 24 24 24 23 23 23 23 23 25 26 28 29 30 31 31 31 30 29 28 25 25 26 28 29 30 31 32 32 33 34 34 36 36
18 18 19 20 22 23 25 25 25 25 24 24 24 24 24 24 24 25 27 29 30 32 32 32 32 30 29 28 27 25 25 26 28 28 30 31 32 33 34 35 36 36
19 20 21 22 23 25 26 26 26 25 24 25 25 25 24 24 24 26 27 29 31 32 33 33 32 30 28 27 27 26 26 26 27 29 31 33 33 35 35 35 36 36
19 20 21 22 23 24 24 24 24 24 24 25 24 23 23 23 25 27 29 31 32 33 33 33 31 29 27 27 27 27 26 26 27 29 32 34 35 36 35 35 36 36
19 19 20 21 21 21 20 20 21 21 22 22 22 23 24 26 28 30 31 32 32 32 32 31 30 28 27 27 27 27 27 26 26 28 30 33 35 37 37 36 37 38
19 20 21 22 22 21 20 19 19 20 21 22 24 25 27 29 29 29 29 29 29 29 28 28 27 27 27 27 27 28 28 27 27 28 29 30 33 35 37 37 38 38
21 22 23 24 24 23 21 20 20 21 23 25 27 27 28 27 27 26 26 26 25 25 25 25 25 25 25 26 26 27 28 28 28 28 28 29 31 32 34 36 37 38
22 23 23 25 25 23 21 21 21 23 24 25 26 25 23 22 21 21 21 21 21 21 21 21 21 22 23 23 24 25 26 27 27 27 28 29 29 30 31 33 35 36
23 23 23 24 23 22 21 21 21 21 21 20 19 18 16 16 16 16 16 16 16 16 16 17 17 18 18 19 20 21 23 25 26 26 27 28 28 29 29 30 32 34
23 23 22 21 21 20 19 19 18 16 15 14 13 12 12 13 13 13 13 13 14 14 14 15 15 15 14 15 17 18 20 22 24 25 26 26 27 28 28 29 30 31
21 20 19 18 18 17 16 15 13 12 11 11 11 11 11 12 12 13 13 13 14 14 15 15 15 14 13 14 16 17 19 21 22 23 25 26 27 27 28 28 29 30
18 17 17 17 16 15 13 12 11 10 10 10 11 11 12 12 13 13 14 14 14 15 15 15 15 14 14 15 16 17 19 21 22 23 25 26 27 28 29 29 30 30
15 15 15 15 14 13 12 11 11 10 11 11 12 12 13 13 13 14 14 15 15 15 15 16 15 15 15 16 17 18 20 22 23 24 26 27 28 30 31 32 32 33
14 14 14 13 12 11 11 11 11 11 12 12 13 13 13 13 13 13 13 14 14 14 15 15 15 15 16 17 18 19 21 23 25 26 27 29 30 31 32 33 35 35
13 13 12 11 11 11 11 11 12 12 12 12 12 12 11 11 12 12 13 14 15 15 15 15 15 16 17 17 19 21 22 24 26 27 29 30 31 32 34 35 36 36
13 12 11 11 11 11 12 12 12 12 12 11 10 11 11 11 12 13 14 15 16 17 18 17 17 18 20 20 21 22 24 26 28 30 32 33 34 34 36 37 37 38
12 12 11 11 11 12 12 11 11 11 11 10 10 11 12 13 14 15 16 17 18 20 21 20 19 20 22 23 24 25 27 29 31 33 35 36 37 37 38 38 38 39
12 12 12 12 11 11 11 11 11 11 12 12 13 14 15 16 18 18 19 20 21 22 24 24 23 22 24 26 27 28 30 32 34 37 38 39 40 40 39 39 40 40
12 12 11 11 11 10 10 11 11 12 14 15 16 17 18 19 21 22 22 23 24 25 26 27 27 26 26 29 30 31 33 35 37 39 41 42 42 42 41 41 42 42
11 11 10 10 10 10 11 12 14 15 16 18 19 21 21 22 23 25 25 25 26 27 28 30 31 30 30 32 33 33 34 36 37 39 41 42 42 43 44 44 44 45
10 10 10 11 11 12 13 15 17 18 19 20 22 23 24 25 25 27 28 29 29 30 32 33 34 35 35 34 34 34 34 35 36 38 39 41 42 43 44 45 45 45
Wind_Direction
233 233 234 235 236 237 239 240 243 246 248 250 252 254 259 262 266 271 274 278 279 280 281 282 284 285 287 287 284 279 275 272 267 262 259 258 259 261 262 263 263 266
232 233 234 236 237 238 239 241 243 245 246 248 250 254 259 263 267 270 273 275 278 280 281 281 283 284 285 286 284 280 275 271 268 263 261 260 259 259 260 261 261 263
236 239 240 241 242 242 242 242 242 243 244 247 250 254 259 262 265 268 272 276 278 280 281 282 282 283 284 284 282 279 275 272 269 265 263 262 259 258 259 260 262 264
245 247 249 249 248 246 244 243 243 244 246 248 251 255 258 261 266 271 275 278 280 281 281 281 281 281 283 283 280 277 273 270 268 264 262 261 259 258 260 262 265 267
254 256 257 256 255 253 251 250 249 249 249 251 253 255 260 264 269 274 277 279 280 280 279 279 279 280 281 282 281 277 272 268 265 262 262 262 260 260 261 263 266 268
259 261 261 262 261 260 260 258 256 254 254 256 258 260 263 267 271 274 276 277 277 277 277 277 277 278 279 281 282 280 273 268 265 262 262 264 263 263 264 263 264 265
263 264 264 266 267 267 266 264 261 261 262 264 265 265 267 270 272 275 276 276 276 276 275 275 276 277 279 281 282 282 278 272 267 263 262 264 264 265 265 265 265 265
264 267 268 269 271 270 270 268 266 266 266 266 265 265 268 272 275 277 278 278 277 276 275 274 275 277 280 281 282 282 281 277 271 264 261 262 263 263 264 265 267 267
266 268 270 270 270 270 269 267 264 263 262 263 265 269 273 277 280 281 280 280 279 279 278 276 276 278 280 282 282 283 283 281 277 269 263 261 261 263 264 264 266 266
264 266 265 264 263 262 262 260 260 261 264 268 272 276 279 280 281 281 281 282 282 282 281 278 277 279 281 282 282 282 282 281 280 276 270 265 262 263 264 265 265 266
260 260 259 259 258 258 258 259 263 267 271 275 278 279 279 279 280 282 283 285 285 284 283 281 281 282 283 283 282 282 282 281 281 280 278 274 269 267 266 265 266 266
256 257 258 260 260 260 261 263 268 273 276 277 278 278 279 280 282 284 285 285 286 287 287 287 287 286 286 285 285 284 283 284 284 283 282 280 277 273 270 267 266 266
255 258 262 264 263 262 263 268 273 276 276 276 276 277 280 281 282 284 285 288 290 292 292 293 292 291 290 290 290 289 287 287 287 286 284 282 280 278 275 272 270 269
257 262 266 265 263 263 268 273 275 274 272 271 272 274 277 279 281 284 288 291 294 295 295 296 296 297 298 298 296 293 290 289 288 287 285 284 282 281 279 277 275 274
260 264 265 263 264 267 271 272 269 266 264 265 269 274 279 283 288 291 295 297 299 300 299 300 302 305 305 302 297 294 291 289 289 289 287 287 286 286 285 284 283 282
262 264 263 264 267 269 267 263 258 257 261 266 274 281 285 290 294 297 299 300 299 300 301 303 306 308 307 303 299 297 294 291 291 292 291 291 291 291 292 292 291 290
262 262 262 263 262 258 253 251 252 258 266 275 282 287 290 293 297 298 298 299 299 300 302 304 306 308 307 305 303 301 298 296 295 296 296 295 296 297 297 298 296 294
260 257 256 251 245 242 242 248 257 265 274 282 286 291 294 296 298 298 299 299 300 302 304 306 309 310 308 307 306 304 302 300 299 300 299 299 299 300 300 300 299 298
252 246 240 235 233 239 247 257 268 275 282 288 290 293 296 297 299 300 300 301 303 305 306 308 312 312 310 309 308 306 305 303 302 302 302 301 301 301 300 299 299 298
238 233 231 233 240 250 259 268 275 281 285 288 291 294 297 300 302 303 305 306 307 307 307 309 311 309 307 307 306 305 304 303 302 302 302 301 301 300 299 298 297 297
227 229 234 242 251 259 266 272 276 280 283 286 290 294 297 301 302 303 306 306 306 306 305 306 307 304 302 302 301 302 302 301 301 302 301 301 301 300 299 298 297 296
225 232 241 249 256 262 266 270 272 275 279 283 289 292 295 299 300 301 303 303 303 304 303 304 304 302 301 301 300 300 300 300 301 301 300 300 300 299 298 297 296 295
230 238 245 251 256 258 261 265 269 275 281 285 289 292 294 297 298 300 302 303 303 304 303 303 304 302 300 300 300 300 300 300 300 300 299 299 300 300 299 297 297 296
235 240 245 248 252 256 261 268 276 282 287 290 293 295 297 299 300 301 302 303 304 304 303 303 303 303 301 300 300 301 300 300 299 299 298 300 301 302 301 300 300 299
236 240 246 250 257 266 273 280 286 290 293 296 297 299 299 301 302 302 302 303 303 302 303 303 303 303 302 301 301 301 300 300 299 298 299 302 304 304 303 302 302 302
243 250 259 264 272 280 285 289 293 295 298 299 300 301 301 302 303 302 302 303 303 303 303 303 303 303 302 301 301 301 301 301 300 301 303 305 305 303 303 303 303 303